Regional Weather Roundup
Issued by NWS

Home | Current Version | Previous Version | Text Only | Print | Product List | Glossary Off
Versions: 1 2 3 4 5 6 7 8 9 10 11 12 13 14 15 16 17 18 19 20 21 22 23 24 25 26 27 28 29 30 31 32 33 34 35 36 37 38 39 40 41 42 43 44 45 46 47 48 49 50

000
ASUS43 KMPX 131101
RWRMN
WEATHER ROUNDUP FOR MINNESOTA
NATIONAL WEATHER SERVICE TWIN CITIES/CHANHASSEN MN
500 AM CST SAT FEB 13 2016


NOTE: "FAIR" INDICATES FEW OR NO CLOUDS BELOW 12,000 FEET WITH NO
SIGNIFICANT WEATHER AND/OR OBSTRUCTIONS TO VISIBILITY. N/A MEANS
CURRENT SKY AND/OR WEATHER CONDITIONS ARE NOT AVAILABLE.

MNZ060>063-068>070-131200-
   Twin Cities Metro

CITY           SKY/WX    TMP DP  RH WIND       PRES   REMARKS
TWIN CITIES    PTCLDY    -6 -13  71 NW5       30.64S WCI -17
ST PAUL        CLOUDY    -5 -13  68 NW6       30.66F WCI -18
CRYSTAL        PTCLDY    -6 -14  68 NW5       30.62F WCI -17
BLAINE         PTCLDY    -6 -11  77 CALM      30.61F
LAKEVILLE      PTCLDY    -9 -15  77 CALM      30.61F
EDEN PRAIRIE   CLOUDY    -7 -15  68 N5        30.61F WCI -18
SOUTH ST PAUL  PTCLDY    -3 -13  63 CALM      30.64S
LAKE ELMO      FAIR      -6 -13  71 CALM      30.63S
$$
MNZ001>005-007-008-013>017-022>024-027-028-131200-
   Northwest Minnesota

CITY           SKY/WX    TMP DP  RH WIND       PRES   REMARKS
BEMIDJI        CLOUDY   -24 -28  78 CALM      30.55F
HALLOCK        CLOUDY   -15 -20  76 SE6       30.58F WCI -29
ROSEAU         PTCLDY   -24 -31  69 S5        30.57S WCI -38
WARROAD        CLOUDY   -24 -29  76 S6        30.55F WCI -40
THIEF RVR FALL CLOUDY   -17 -26  63 SE3       30.57F
CROOKSTON      CLOUDY   -13 -17  84 SE6       30.62R WCI -27
FOSSTON          N/A    -26 -35  62 CALM      30.56F
DETROIT LAKES  CLOUDY   -15 -18  84 CALM      30.55F
MOORHEAD       CLOUDY    -8 -11  84 S3        30.60F
PARK RAPIDS    CLOUDY   -18 -23  77 CALM      30.53F
MAHNOMEN       FAIR     -19 -24  77 SE5       30.56F WCI -32
$$
MNZ006-009>011-018-025>026-131200-
   North Central Minnesota

CITY           SKY/WX    TMP DP  RH WIND       PRES   REMARKS
BAUDETTE       CLOUDY   -23 -29  73 SW5       30.54F WCI -37
FLAG ISLAND    CLOUDY   -24 -29  76 S6        30.54S WCI -40
INTL FALLS     CLOUDY   -19 -24  77 W5        30.55S WCI -32
WASKISH        CLOUDY   -24 -27  83 CALM      30.55F
LONGVILLE      CLOUDY   -22 -27  76 CALM      30.56F
GRAND RAPIDS   CLOUDY   -17 -24  70 NW6       30.53F WCI -31
CRANE LAKE     CLOUDY   -27 -33  75 S1        30.57F
ORR            CLOUDY   -20 -27  69 CALM      30.50S
COOK           CLOUDY   -24 -29  76 W5        30.53F WCI -38
WALKER         FAIR     -19 -24  77 CALM      30.56F
$$
MNZ012-019>021-037-131200-
   Northeast Minnesota

CITY           SKY/WX    TMP DP  RH WIND       PRES   REMARKS
DULUTH         CLOUDY   -14 -21  71 NW13      30.49F WCI -36
ELY            CLOUDY   -22 -27  76 CALM      30.50F
HIBBING        CLOUDY   -20 -25  77 CALM      30.53F
EVELETH        CLOUDY   -17 -24  70 W3        30.53F
DULUTH HARBOR  CLOUDY    -8 -17  65 W12       30.63S WCI -27
TWO HARBORS    CLOUDY    -9 -18  64 CALM      30.50R
SILVER BAY     CLOUDY   -11 -20  64 NW8       30.49F WCI -28
GRAND MARAIS     N/A    -12 -21  64 CALM      30.55S
G MARAIS ARPRT CLOUDY   -17 -24  70 NW10      30.36S WCI -37
$$
MNZ029>031-032-039>041-046>048-054>057-064-131200-
   West Central Minnesota

CITY           SKY/WX    TMP DP  RH WIND       PRES   REMARKS
FERGUS FALLS   CLOUDY    -8 -13  77 CALM      30.63F
WHEATON        CLOUDY    -8 -11  84 CALM      30.62F
MORRIS         CLOUDY    -8 -11  84 CALM      30.58F
ALEXANDRIA     CLOUDY   -12 -18  74 CALM      30.56F
ELBOW LAKE     FAIR      -8 -13  77 CALM      30.58F
WADENA         CLOUDY   -17 -22  76 CALM      30.55F
GLENWOOD       CLOUDY   -11 -17  77 NE3       30.57F
APPLETON       CLOUDY    -8 -13  77 CALM      30.61F
BENSON         PTCLDY    -8 -11  84 CALM      30.60F
ORTONVILLE     CLOUDY    -8 -13  77 CALM      30.60F
MADISON        CLOUDY    -4  -9  77 CALM      30.62F
WILLMAR        FAIR      -6 -11  77 NE3       30.61S
$$
MNZ033>034-036-042>043-049>051-058-059-131200-
   Central Minnesota

CITY           SKY/WX    TMP DP  RH WIND       PRES   REMARKS
ST CLOUD       PTCLDY   -11 -17  75 CALM      30.61S
SAUK CENTRE    FAIR     -12 -16  82 CALM      30.58F
PAYNESVILLE    CLOUDY    -9 -15  77 CALM      30.60S
AITKIN         PTCLDY   -20 -29  63 CALM      30.57S
PINE RIVER     CLOUDY   -20 -26  76 CALM      30.59F
BRAINERD       PTCLDY   -20 -25  77 NE3       30.58F
STAPLES        CLOUDY   -18 -24  76 CALM      30.57S
LONG PRAIRIE   FAIR     -13 -18  77 CALM      30.57F
LITTLE FALLS   PTCLDY   -15 -18  84 CALM      30.60F
LITCHFIELD     CLOUDY    -8 -13  77 CALM      30.61S
BUFFALO        PTCLDY    -9 -16  73 CALM      30.63S
MAPLE LAKE     CLOUDY    -9 -14  79 NW3       30.62S
$$
MNZ037-044-045-052-053-131200-
   East Central Minnesota

CITY           SKY/WX    TMP DP  RH WIND       PRES   REMARKS
PRINCETON      PTCLDY   -11 -18  70 CALM      30.61R
MORA           PTCLDY    -9 -17  70 CALM      30.61F
CAMBRIDGE      PTCLDY    -9 -17  70 CALM      30.60F
RUSH CITY      MOCLDY    -9 -16  73 CALM      30.62F
MOOSE LAKE     CLOUDY   -13 -20  70 CALM      30.57S
HINCKLEY       FAIR      -9 -15  77 CALM      30.60S
CLOQUET        CLOUDY   -15 -20  76 NW12      30.53S WCI -36
MCGREGOR       CLOUDY   -13 -18  77 NW3       30.58S
$$
MNZ071>073-080-081-089-090-097-098-131200-
   Southwest Minnesota

CITY           SKY/WX    TMP DP  RH WIND       PRES   REMARKS
MONTEVIDEO     CLOUDY    -8 -11  84 NW3       30.64S
GRANITE FALLS  CLOUDY    -3  -8  81 W3        30.64F
CANBY          PTCLDY     0  -6  74 CALM      30.60F
MARSHALL       CLOUDY    -4 -10  75 N5        30.60F WCI -15
REDWOOD FALLS  CLOUDY    -6 -10  83 W5        30.62S WCI -17
OLIVIA         PTCLDY    -2  -9  71 NE3       30.61F
PIPESTONE      CLOUDY    -2 -15  55 E6        30.51F WCI -14
WINDOM         CLOUDY    -8 -11  84 CALM      30.58R
WORTHINGTON    CLOUDY    -6  -9  84 N6        30.55F WCI -18
JACKSON        CLOUDY    -6 -13  71 CALM      30.57F
TRACY          CLOUDY    -3  -8  79 N5        30.59F WCI -13
SLAYTON        CLOUDY    -5  -9  81 N5        30.55S WCI -16
$$
MNZ065>067-074>077-082>085-091>093-131200-
   South Central Minnesota

CITY           SKY/WX    TMP DP  RH WIND       PRES   REMARKS
MANKATO        CLOUDY    -6 -11  77 CALM      30.61S
NEW ULM        CLOUDY    -4 -13  65 CALM      30.63R
ST JAMES       CLOUDY    -6  -9  84 NW3       30.63S
FAIRMONT       CLOUDY    -4  -9  77 NW6       30.59R WCI -16
GLENCOE        CLOUDY    -6 -12  77 CALM      30.62S
FARIBAULT      PTCLDY    -9 -15  77 N2        30.59F
OWATONNA       CLOUDY    -8 -15  71 CALM      30.59S
WASECA         CLOUDY    -6 -13  71 NW5       30.62R WCI -17
ALBERT LEA     CLOUDY    -6 -11  77 CALM      30.58R
$$
MNZ078>079-086>088-094>096-131200-
   Southeast Minnesota

CITY           SKY/WX    TMP DP  RH WIND       PRES   REMARKS
ROCHESTER      CLOUDY    -8 -15  71 NW7       30.56F WCI -23
RED WING       CLOUDY    -9 -17  70 NW2       30.63S
STANTON        CLOUDY    -7 -14  72 CALM      30.60F
DODGE CENTER   CLOUDY    -9 -17  70 N6        30.55F WCI -23
WINONA         CLOUDY     0 -11  60 N3        30.65R
AUSTIN         CLOUDY    -8 -11  84 CALM      30.57S
PRESTON        PTCLDY    -8 -15  70 N7        30.56F WCI -22
$$
ABBREVIATIONS USED IN REMARKS
   TC - TEMPERATURES IN CELSIUS
  WCI - WIND CHILL INDEX
   HX - HEAT INDEX
  VSB - VISIBILITY
$$



USA.gov is the U.S. government's official web portal to all federal, state and local government web resources and services.